www.pogodaiklimat.ru

Погода и климат >> Архив погоды >> Россия >> Новосибирская область >> Чаны


ПОГОДА в Чанах

  • Прогноз погоды в Чанах
  • Монитор погоды в Чанах

АРХИВ ПОГОДЫ в Чанах

Время (UTC), дата Ветер
(напр.,м/с)
 
Видим.   Явления Облачность Т
(С)
Тd
(С)
f
(%)
Тe
(С)
Тes
(С)
Комфортность P
(гПа)
Po
(гПа)
Тmin
(С)
Tmax
(С)
R
(мм)
R24
(мм)
S
(см)
00 18.08 СЗ 2 50 км ясно +11.9 +11.1 95 +11 +11 1015.8 1002.4 +11.9
03 18.08 СЗ 1 50 км 5/0
[Ci fib]
+19.9 +14.1 69 +23 +28 комфорт 1015.9 1002.9
06 18.08 СЗ 2 50 км 5/1 600 м
[Cu med, cong Ci fib]
+24.9 +12.9 47 +27 +36 жарко 1015.4 1002.6
09 18.08 СЗ 2 50 км 6/4 600 м
[Cu med, cong Ci fib]
+27.3 +10.5 35 +28 +33 жарко 1014.8 1002.1
12 18.08 СЗ 4 50 км 8/3 600 м
[Cu med, cong Ci fib]
+25.9 +11.4 40 +27 +28 жарко 1015.4 1002.6 +27.3
15 18.08 З 3 50 км 10/0
[Ac trans Ci fib]
+18.6 +14.6 78 +20 +20 1016.4 1003.3
18 18.08 СЗ 3 50 км 8/0
[Ac trans Ci fib]
+17.4 +15.5 89 +17 +17 1017.5 1004.3
21 18.08 СЗ 2 50 км 10/0
[Ci fib]
+15.2 +14.1 93 +15 +15 1017.7 1004.4
00 19.08 СЗ 3 50 км 10/0
[Ci fib]
+15.6 +14.7 94 +15 +15 1018.3 1005.1 +15.1
03 19.08 С 5 50 км 10/3 600 м
[Sc Ac trans Ci fib]
+17.2 +13.4 78 +17 +17 1019.2 1006.0
06 19.08 С 5 50 км 10/4 600 м
[Cu Sc Ci fib]
+19.7 +11.5 59 +21 +24 комфорт 1019.4 1006.3
09 19.08 С 4
{11}
50 км 8/5 600 м
[Cu med, cong Ci fib]
+21.7 +9.0 44 +23 +26 комфорт 1019.2 1006.2
12 19.08 С 4 50 км 6/6 600 м
[Cu med, cong]
+21.6 +8.9 44 +23 +23 комфорт 1019.0 1006.0 +22.7
15 19.08 СЗ 2 50 км 3/0
[Ac trans]
+14.2 +8.8 70 +14 +14 1020.4 1007.0
18 19.08 З 2 50 км ясно +11.1 +8.6 85 +10 +10 1020.7 1007.2
21 19.08 З 2 50 км ясно +8.9 +7.6 92 +7 +7 1020.1 1006.5
00 20.08 З 2 10 км туман поземный 4/0
[Ci fib]
+7.5 +6.6 94 +5 +5 1020.1 1006.4 +7.4
03 20.08 З 3 50 км 10/6 600 м
[Sc Ac trans Ci fib]
+14.4 +9.1 70 +14 +14 1018.9 1005.6
06 20.08 З 7-10
{10}
50 км 10/10 600 м
[Sc]
+17.0 +7.7 54 +16 +16 1017.8 1004.6
09 20.08 З 8-12
{14}
50 км 10/10 600 м
[Sc]
+17.3 +7.1 51 +16 +16 1017.0 1003.8
12 20.08 СЗ 5
{13}
50 км 10/10 600 м
[Sc]
+15.3 +8.3 63 +14 +14 1017.0 1003.7 +17.3
15 20.08 З 2 50 км 3/3 600 м
[Sc]
+9.6 +7.6 87 +8 +8 1017.1 1003.6
18 20.08 З 3 50 км 3/3 600 м
[Sc]
+9.4 +8.4 93 +7 +7 1016.4 1002.9
21 20.08 З 3 50 км 10/10 600 м
[Sc]
+10.0 +9.2 95 +8 +8 1015.7 1002.2
00 21.08 СЗ 2 50 км 10/10 600 м
[Sc]
+10.7 +9.8 94 +9 +9 1015.3 1001.9 +8.3
03 21.08 С 4 50 км 10/10 600 м
[Sc]
+12.7 +9.6 81 +11 +11 1015.1 1001.8
06 21.08 С 3 50 км 8/8 600 м
[Sc]
+16.1 +9.0 63 +16 +18 1014.3 1001.1
09 21.08 СЗ 3 50 км 8/8 600 м
[Cu Sc]
+17.5 +9.0 57 +18 +19 1013.5 1000.4
12 21.08 З 2 50 км 10/4 600 м
[Cu Sc Ac trans Ci fib]
+18.7 +8.0 50 +20 +20 1012.7 999.6 +18.9
15 21.08 СВ 2 50 км 9/9 600 м
[Sc]
+14.3 +9.8 74 +14 +14 1013.3 1000.0
18 21.08 В 1 50 км 10/10 600 м
[Sc]
+11.9 +10.4 91 +12 +12 1012.7 999.3
21 21.08 С 1 50 км 10/10 600 м
[Sc]
+10.7 +9.6 93 +10 +10 1012.1 998.7
00 22.08 С 1 50 км 10/10 600 м
[Sc]
+11.5 +10.7 95 +11 +11 1012.4 999.1 +10.6
03 22.08 СВ 3 50 км 10/6 600 м
[Sc Ac trans Ci fib]
+15.0 +10.6 75 +14 +15 1012.4 999.2
06 22.08 С 4 50 км 8/8 600 м
[Cu med, cong]
+19.4 +10.1 55 +20 +22 1011.7 998.7
09 22.08 С 5 50 км 8/8 600 м
[Cu med, cong]
+20.4 +8.8 47 +22 +23 комфорт 1011.3 998.4
12 22.08 С 5 50 км 8/8 600 м
[Cu med, cong]
+20.4 +7.8 44 +21 +22 комфорт 1011.7 998.7 +20.6
15 22.08 С 3
{10}
4000 м слаб. ливневой дождь 10/10 600 м
[Cb cap]
+13.9 +12.3 90 +13 +13 1013.1 999.8
18 22.08 З 3 50 км {ливн. осадки} 6/6 600 м
[Sc]
+12.9 +11.9 94 +11 +11 1012.4 999.1
21 22.08 З 2 50 км ясно +10.4 +9.7 95 +9 +9 1013.0 999.6
00 23.08 СЗ 2 4000 м дымка ясно +12.6 +12.0 96 +12 +12 1014.1 1000.8 +10.3 4
03 23.08 З 4 20 км ясно +13.7 +13.2 97 +12 +15 1015.2 1001.9
06 23.08 З 5 50 км 3/3 600 м
[Cu med, cong]
+20.5 +13.8 65 +23 +27 комфорт 1015.1 1002.1
09 23.08 СЗ 6 50 км 8/8 600 м
[Cu Sc]
+22.9 +11.8 50 +25 +26 комфорт 1014.9 1002.0
12 23.08 СЗ 4
{11}
50 км 4/4 600 м
[Cu med, cong]
+22.7 +9.2 42 +24 +25 комфорт 1015.1 1002.2 +23.7
15 23.08 З 2 50 км 3/0
[Ci fib]
+15.6 +9.9 69 +16 +16 1016.3 1003.0
18 23.08 ЮЗ 2 50 км ясно +13.2 +9.2 77 +13 +13 1016.6 1003.2
21 23.08 ЮЗ 2 50 км ясно +12.2 +8.9 80 +11 +11 1015.7 1002.3
00 24.08 Ю 2 20 км 6/0
[Ac trans]
+11.9 +9.3 84 +11 +11 1015.3 1001.9 +11.5
03 24.08 ЮЗ 4 50 км 10/4 600 м
[Sc Ac trans Ci fib]
+17.3 +11.5 69 +17 +18 1014.5 1001.4
06 24.08 ЮЗ 4
{10}
50 км 10/6 600 м
[Sc Ac trans Ci fib]
+23.7 +10.9 44 +25 +26 комфорт 1013.3 1000.5
09 24.08 ЮЗ 5
{11}
50 км 10/8 600 м
[Cu Sc Ci fib]
+27.0 +9.3 33 +27 +28 жарко 1011.4 998.8
12 24.08 З 6
{11}
50 км 10/4 600 м
[Cu Sc Ci fib]
+24.9 +10.4 40 +26 +26 жарко 1011.7 998.9 +27.7
15 24.08 З 3 50 км 4/0
[Ci fib]
+15.5 +9.9 69 +15 +15 1013.3 1000.1
18 24.08 З 3 50 км 4/0
[Ci fib]
+13.4 +9.8 79 +12 +12 1014.3 1001.0
21 24.08 З 3 50 км 6/0
[Ci fib]
+10.9 +8.9 87 +9 +9 1015.2 1001.7

 

Местоположение метеостанции Чаны (Новосибирская область, Россия): широта 55.32 долгота 76.75 высота над уровнем моря 111 м.

В архиве по умолчанию представлена погода в Чанах за последнюю неделю. Архивные данные за месяц целиком и за предыдущие месяцы, начиная с января 2011 года, Вы можете получить, выбрав интересующий диапазон дат из раскрывающегося списка и нажав кнопку "Ввод!".


*Определитесь, кто Вы:
робот инопланетянин человек

Внимание! Время в таблицах - всемирное. Для получения местного времени необходимо прибавить поправку, которая равна 7 ч.

Смотрите также архив погоды в соседних городах и на ближайших метеорологических станциях:

Погода в Венгерово (Новосибирская область, Россия) (39 км)
Погода в Татарске (Новосибирская область, Россия) (48 км)
Погода в Чистоозерном (Новосибирская область, Россия) (70 км)
Погода в Усть-Тарке (Новосибирская область, Россия) (73 км)
Погода в Квашнино (Новосибирская область, Россия) (76 км)
Погода в Барабинске (Новосибирская область, Россия) (103 км)
Погода в Купино (Новосибирская область, Россия) (111 км)
Погода в Нижней Омке (Омская область, Россия) (116 км)
Погода в Любимовке (Омская область, Россия) (128 км)
Погода в Здвинске (Новосибирская область, Россия) (139 км)

Пояснения к столбцам:

Ветер - указаны скорость ветра в м/с - средняя за 10 мин, порывы в срок и между сроками (в фигурных скобках) и направление, откуда дует ветер: С - северный, СВ - северо-восточный, В - восточный, ЮВ - юго-восточный, Ю - южный, ЮЗ - юго-западный, З - западный, СЗ - северо-западный.
Видимость - горизонтальная дальность видимости в метрах или километрах. При видимости от 1 до 10 км при отсутствии осадков обычно наблюдается дымка, при ухудшении видимости до 1 км и менее - туман. В сухую погоду видимость может ухудшаться дымом, пылью или мглою.
Явления - указаны атмосферные явления, наблюдавшиеся в срок или в последний час перед сроком; фигурными скобками обозначены явления, наблюдавшиеся между сроками (за 1-3 часа до срока); квадратными скобками обозначены град или гололедные отложения с указанием их диаметра в мм.
Облачность - указаны через наклонную черту общая и нижняя облачность в баллах и высота нижней границы облаков в метрах; квадратными скобками обозначены формы облаков: Ci - перистые, Cs - перисто-слоистые, Cc - перисто-кучевые, Ac - высококучевые, As - высокослоистые, Sc - слоисто-кучевые, Ns - слоисто-дождевые, Cu - кучевые, Cb - кучево-дождевые. Подробнее классификацию облаков см. в Атласе облаков (PDF).
T - Температура воздуха - температура, измеренная на высоте 2 м над землей.
Td - Температура точки росы - температура, при понижении до которой содержащийся в воздухе водяной пар достигнет насыщения.
f - Относительная влажность воздуха - влажноcть воздуха, измеренная на высоте 2 м над землей.
Te - Эффективная температура - температура, которую ощущает одетый по сезону человек в тени. Характеристика душности погоды. При расчете учитывается влияние влажности воздуха и скорости ветра на теплоощущения человека.
Tes - Эффективная температура на солнце - температура, которую ощущает человек, с поправкой на солнечный нагрев. Характеристика знойности погоды. Зависит от высоты солнца над горизонтом, облачности и скорости ветра. Ночью, в пасмурную погоду, а также при ветре 12 м/с и более поправка равна нулю.
P - Атмосферное давление - приведенное к уровню моря атмосферное давление.
Po - Атмосферное давление - измеренное на уровне метеостанции атмосферное давление.
Tmin - Минимальная температура - минимум температуры воздуха на высоте 2 м над землей.
Tmax - Максимальная температура - максимум температуры воздуха на высоте 2 м над землей.
R - Количество осадков - Количество выпавших осадков за период времени, мм. При наведении курсора мыши на число - период времени, за который выпало указанное количество осадков.
R24 - Количество осадков - Количество выпавших осадков за 24 часа, мм.
S - Снежный покров - Высота снежного покрова, см. При наведении курсора мыши на число - состояние снежного покрова и степень покрытия местности в баллах.